C/2012 U1 ( PanSTARRS )

Japanese version
Home page
Updated on August 9, 2016

---------------------------------------------------------------------

* Profile

Discovery Date October 18, 2012
Magnitude 21.0 mag
Discoverer Pan-STARRS 1 telescope (Haleakala)

* Pictures

* Orbital Elements

Epoch 2014 July 2.0 TT = JDT 2456840.5
T 2014 July 4.89855 TT                                  MPCW
q   5.2637084            (2000.0)            P               Q
z  +0.0000870      Peri.   70.07076     +0.06733402     -0.92350250
 +/-0.0000010      Node    26.98197     +0.25668300     -0.34972137
e   0.9995421      Incl.   56.33882     +0.96414727     +0.15760110
From 166 observations 2012 Oct. 17-2015 July 10, mean residual 0".4.

* Magnitudes Graph

        m1 = 7.5 + 5 log d + 10.0 log r

---------------------------------------------------------------------

The orbital elements are published on M.P.E.C. 2015-Q71.
The magnitudes graphs are made with Comet for Windows.

---------------------------------------------------------------------

Copyright(C) Seiichi Yoshida (comet@aerith.net). All rights reserved.